Location: Bathurst
(33.4193°S, 149.5775°E)
Time: 10:01:25
(UTC+10:00)

Vanguard 1 Rocket - Pass Details

Date: 18 June 2021
Orbit: 650 x 4226 km, 34.3° (Epoch: 02 August)

Event Time Altitude Azimuth Distance (km) Brightness Sun altitude
Rises 11:16:26 0° 278° (W) 7,331 12.0 32.1°
Reaches altitude 10° 11:22:09 10° 277° (W) 5,777 11.5 32.4°
Maximum altitude 11:37:33 87° 186° (S) 1,701 9.3 32.9°
Drops below altitude 10° 11:45:05 10° 96° (E) 3,013 10.2 33.0°
Sets 11:47:09 0° 95° (E) 3,724 10.5 33.1°
